Total_Precipitation_Accumulation
0.32 0.49 1.12 1.38 1.48 1.53 1.53 1.48 1.38 1.29 1.29 1.45 1.55 1.57 1.42 1.31 1.32 1.32 1.30 1.38 1.53 1.74 1.96 2.04 1.90 1.86 1.69 1.56 1.39 1.12 0.99 0.87 0.82 0.76 0.75 0.88 1.04 1.09 0.96 0.95 0.99 1.04 1.37
0.32 0.44 1.02 1.43 1.58 1.61 1.61 1.52 1.31 1.27 1.31 1.36 1.54 1.63 1.57 1.42 1.37 1.42 1.45 1.48 1.72 1.91 2.04 2.10 1.88 1.76 1.59 1.38 1.13 0.90 0.76 0.61 0.53 0.43 0.40 0.57 0.81 0.98 0.89 0.89 0.96 1.16 1.25
0.37 0.49 0.90 1.43 1.69 1.74 1.73 1.60 1.38 1.31 1.41 1.35 1.49 1.64 1.69 1.58 1.55 1.56 1.61 1.70 1.84 1.87 1.92 1.95 1.83 1.65 1.37 1.13 0.94 0.77 0.65 0.53 0.46 0.37 0.39 0.53 0.76 1.08 1.06 0.98 1.08 1.27 1.23
0.42 0.58 0.90 1.47 1.78 1.86 1.77 1.64 1.51 1.39 1.37 1.36 1.40 1.56 1.70 1.74 1.76 1.74 1.75 1.87 1.85 1.76 1.77 1.69 1.57 1.43 1.20 0.98 0.86 0.76 0.64 0.53 0.45 0.40 0.49 0.59 0.76 1.36 1.46 1.34 1.34 1.34 1.23
0.52 0.69 1.08 1.65 1.91 1.96 1.84 1.73 1.65 1.49 1.36 1.38 1.42 1.44 1.55 1.69 1.81 1.97 1.98 1.96 1.86 1.69 1.60 1.53 1.35 1.27 1.15 1.04 0.90 0.75 0.63 0.53 0.39 0.42 0.55 0.68 1.00 1.76 1.63 1.50 1.43 1.37 1.22
0.72 0.94 1.28 1.74 1.93 1.98 1.95 1.90 1.84 1.64 1.51 1.57 1.57 1.50 1.48 1.55 1.69 1.89 1.94 1.89 1.82 1.67 1.56 1.45 1.28 1.19 1.13 1.02 0.94 0.79 0.65 0.52 0.41 0.45 0.55 0.70 1.01 1.70 1.59 1.45 1.42 1.36 1.27
0.96 1.17 1.46 1.81 1.99 1.99 2.01 2.07 1.98 1.92 1.90 1.85 1.80 1.65 1.56 1.53 1.58 1.65 1.66 1.64 1.76 1.70 1.53 1.49 1.33 1.22 1.12 1.02 0.97 0.81 0.65 0.49 0.44 0.52 0.61 0.74 1.19 1.73 1.72 1.58 1.54 1.45 1.39
1.25 1.44 1.67 2.03 2.19 2.13 2.07 2.10 2.16 2.23 2.25 2.12 2.01 1.87 1.68 1.67 1.62 1.54 1.47 1.47 1.66 1.70 1.62 1.55 1.37 1.21 1.11 1.02 0.97 0.83 0.63 0.48 0.46 0.46 0.54 0.79 1.37 1.73 1.72 1.52 1.47 1.45 1.45
1.66 1.83 2.06 2.20 2.18 2.26 2.23 2.21 2.20 2.29 2.36 2.27 2.05 1.94 1.79 1.71 1.62 1.50 1.42 1.49 1.56 1.62 1.63 1.55 1.43 1.24 1.10 1.00 0.84 0.71 0.54 0.45 0.45 0.47 0.51 0.80 1.34 1.74 1.72 1.52 1.44 1.42 1.41
2.21 2.31 2.48 2.57 2.43 2.35 2.29 2.29 2.22 2.18 2.35 2.39 2.16 1.82 1.61 1.58 1.62 1.54 1.35 1.47 1.57 1.56 1.61 1.53 1.43 1.31 1.08 0.89 0.74 0.64 0.49 0.42 0.44 0.49 0.61 0.85 1.30 1.66 1.69 1.50 1.47 1.47 1.46
2.78 2.79 2.82 2.91 2.86 2.73 2.59 2.35 2.35 2.30 2.40 2.35 2.12 1.84 1.69 1.66 1.55 1.43 1.22 1.23 1.44 1.52 1.51 1.49 1.35 1.22 1.01 0.80 0.69 0.58 0.47 0.43 0.48 0.54 0.64 1.00 1.37 1.57 1.64 1.50 1.45 1.47 1.49
2.96 3.08 3.11 3.16 3.14 3.07 2.89 2.75 2.61 2.47 2.45 2.31 1.97 1.79 1.79 1.75 1.60 1.38 1.31 1.24 1.34 1.40 1.46 1.50 1.40 1.19 1.00 0.78 0.73 0.63 0.52 0.50 0.56 0.55 0.69 1.02 1.36 1.52 1.54 1.45 1.46 1.42 1.42
3.21 3.45 3.53 3.57 3.63 3.66 3.39 3.08 2.92 2.74 2.50 2.47 2.17 1.91 1.83 1.92 1.86 1.73 1.50 1.42 1.45 1.35 1.34 1.40 1.35 1.14 0.91 0.76 0.69 0.60 0.57 0.58 0.60 0.63 0.75 0.93 1.24 1.46 1.50 1.46 1.49 1.53 1.53
3.48 3.72 4.04 4.10 4.08 4.10 3.84 3.46 3.10 2.90 2.66 2.48 2.47 2.20 2.03 1.96 1.84 1.74 1.52 1.37 1.36 1.26 1.23 1.34 1.31 1.16 1.00 0.80 0.74 0.69 0.67 0.65 0.63 0.66 0.75 0.88 1.07 1.40 1.64 1.70 1.65 1.66 1.71
3.42 3.77 4.21 4.33 4.26 4.20 3.96 3.60 3.20 3.02 2.86 2.60 2.70 2.59 2.30 2.11 1.96 1.87 1.76 1.56 1.46 1.34 1.25 1.26 1.37 1.30 1.20 1.07 0.91 0.79 0.76 0.74 0.70 0.66 0.68 0.80 0.95 1.24 1.59 1.73 1.73 1.86 1.88
3.45 3.71 4.14 4.36 4.32 4.33 4.10 3.68 3.27 3.00 2.95 2.83 2.65 2.55 2.47 2.28 2.14 2.09 1.94 1.74 1.56 1.40 1.30 1.25 1.30 1.38 1.33 1.26 1.15 1.02 0.94 0.87 0.78 0.72 0.66 0.73 0.87 1.01 1.29 1.54 1.65 1.85 2.13
3.45 3.78 4.00 4.32 4.51 4.37 4.26 3.87 3.45 3.26 3.07 2.92 2.73 2.58 2.53 2.45 2.31 2.28 2.13 1.86 1.71 1.62 1.50 1.46 1.50 1.52 1.42 1.25 1.15 1.14 1.09 0.97 0.87 0.82 0.75 0.72 0.77 0.87 1.09 1.36 1.52 1.71 1.98
3.43 3.79 3.97 4.14 4.35 4.36 4.35 4.16 3.61 3.33 3.24 3.07 2.89 2.75 2.61 2.53 2.48 2.49 2.33 2.03 2.00 2.08 1.92 1.73 1.66 1.61 1.49 1.35 1.21 1.19 1.16 1.10 0.94 0.85 0.83 0.78 0.76 0.80 0.97 1.23 1.38 1.51 1.70
3.30 3.70 3.98 4.11 4.22 4.41 4.46 4.37 4.15 3.73 3.34 3.30 3.21 2.92 2.66 2.56 2.51 2.50 2.44 2.29 2.27 2.32 2.25 2.05 1.92 1.85 1.67 1.54 1.43 1.38 1.37 1.32 1.22 1.06 0.94 0.94 0.91 0.89 1.02 1.24 1.36 1.39 1.47
3.25 3.66 3.99 4.09 4.10 4.42 4.78 4.72 4.50 4.25 3.69 3.33 3.25 3.09 2.88 2.67 2.52 2.48 2.39 2.45 2.50 2.48 2.43 2.35 2.17 2.07 1.96 1.85 1.77 1.64 1.60 1.54 1.42 1.24 1.11 1.06 1.04 1.02 1.13 1.21 1.25 1.36 1.43
3.20 3.52 3.85 4.01 4.02 4.09 4.43 4.52 4.28 4.05 3.88 3.52 3.23 3.19 3.11 2.94 2.85 2.70 2.46 2.48 2.61 2.48 2.36 2.43 2.48 2.47 2.38 2.20 2.15 2.01 1.88 1.72 1.58 1.33 1.17 1.14 1.13 1.12 1.14 1.19 1.22 1.14 1.08
2.88 3.29 3.63 3.87 4.07 3.98 3.91 4.09 4.10 4.03 3.89 3.70 3.45 3.37 3.20 3.04 2.95 2.90 2.81 2.69 2.75 2.71 2.58 2.50 2.52 2.60 2.54 2.49 2.44 2.39 2.24 2.11 1.77 1.45 1.29 1.20 1.18 1.21 1.21 1.17 1.14 1.11 0.99
2.55 2.90 3.24 3.57 3.86 4.09 4.06 4.23 4.30 4.28 4.07 3.81 3.48 3.27 3.13 3.07 3.02 2.91 2.88 2.86 2.85 2.87 2.78 2.66 2.57 2.57 2.60 2.53 2.46 2.59 2.35 2.03 1.78 1.60 1.37 1.26 1.23 1.24 1.26 1.26 1.19 1.13 1.05
2.25 2.54 2.83 3.29 3.63 3.96 4.14 4.12 4.09 4.11 3.90 3.54 3.37 3.39 3.27 3.05 2.97 2.96 2.87 2.82 2.86 2.84 2.78 2.81 2.81 2.67 2.66 2.68 2.59 2.39 2.16 1.88 1.81 1.73 1.56 1.45 1.35 1.27 1.27 1.29 1.24 1.16 1.12
1.99 2.30 2.50 2.88 3.26 3.55 3.64 3.65 3.77 3.82 3.80 3.63 3.55 3.48 3.42 3.15 2.89 2.84 2.84 2.78 2.75 2.77 2.76 2.79 2.82 2.85 2.76 2.68 2.61 2.49 2.35 2.07 1.87 1.83 1.73 1.66 1.66 1.51 1.39 1.34 1.31 1.28 1.22
1.68 2.00 2.28 2.47 2.78 3.05 3.20 3.27 3.40 3.36 3.45 3.50 3.45 3.47 3.49 3.31 3.02 2.83 2.76 2.67 2.64 2.66 2.64 2.70 2.78 2.86 2.81 2.67 2.55 2.36 2.29 2.18 1.99 1.93 1.79 1.64 1.72 1.67 1.57 1.49 1.43 1.40 1.42